This is the latest recevied weather packets stored in our database for station/object SALIDA. If no packets are shown the sender has not sent any weather packets the latest 10 day(s).
| Time | Temp. | Humidity | Pressure | Rain* | Wind** | Luminosity | Snow |
|---|---|---|---|---|---|---|---|
| 1777434400 | 9.44° C | 48% | 1010.3 hPa | 0 mm | - | - | - |
| 1777433500 | 8.89° C | 36% | 1010.4 hPa | 0 mm | - | - | - |
| 1777432600 | 9.44° C | 34% | 1010.3 hPa | 0 mm | - | - | - |
| 1777431700 | 10° C | 34% | 1010 hPa | 0 mm | - | - | - |
| 1777430800 | 10° C | 33% | 1009.5 hPa | 0 mm | - | - | - |
| 1777429900 | 10.56° C | 33% | 1009.2 hPa | 0 mm | - | - | - |
| 1777429000 | 10.56° C | 32% | 1008.9 hPa | 0 mm | - | - | - |
| 1777428100 | 11.11° C | 31% | 1008.6 hPa | 0 mm | - | - | - |
| 1777427200 | 11.67° C | 30% | 1008.4 hPa | 0 mm | - | - | - |
| 1777426300 | 12.22° C | 29% | 1008.3 hPa | 0 mm | - | - | - |
| 1777425400 | 12.78° C | 28% | 1008.4 hPa | 0 mm | - | - | - |
| 1777424500 | 13.33° C | 28% | 1008.4 hPa | 0 mm | - | - | - |
| 1777423600 | 13.89° C | 26% | 1008.2 hPa | 0 mm | - | - | - |
| 1777422700 | 14.44° C | 26% | 1007.9 hPa | 0 mm | - | - | - |
| 1777421800 | 14.44° C | 25% | 1007.7 hPa | 0 mm | - | - | - |
| 1777420900 | 14.44° C | 24% | 1007.8 hPa | 0 mm | - | - | - |
| 1777420000 | 15° C | 25% | 1007.7 hPa | 0 mm | - | - | - |
| 1777419100 | 15° C | 24% | 1007.7 hPa | 0 mm | - | - | - |
| 1777418200 | 15° C | 24% | 1007.5 hPa | 0 mm | - | - | - |
| 1777417300 | 15° C | 24% | 1007.4 hPa | 0 mm | - | - | - |
| 1777416400 | 15.56° C | 24% | 1007.5 hPa | 0 mm | - | - | - |
| 1777415500 | 15° C | 24% | 1007.6 hPa | 0 mm | - | - | - |
| 1777414600 | 15.56° C | 24% | 1007.5 hPa | 0 mm | - | - | - |
| 1777413700 | 15° C | 23% | 1007.6 hPa | 0 mm | - | - | - |
| 1777412801 | 15° C | 24% | 1007.7 hPa | 0 mm | - | - | - |
* Rain latest hour (hover to see other rain measurements)
** Current wind speed in m/s (hover to see current wind gust speed)